Showing default

JASON, 26997

Orbit data source: Space-Track

JASON, 26997 is an American payload satellite in LEO that was launched on Fri, 07 Dec 2001 UTC via a DELTA 7920-10 launch vehicle from the Air Force Western Test Range (AFWTR). Payload-class satellites include a variety of spacecraft equipped with specific instruments for various scientific and technological missions. These include communications satellites like Starlink; space stations such as the ISS; scientific satellites like the Hubble; Earth observation satellites from companies like Planet Labs, Umbra, and HawkEye 360; GPS; miniature CubeSats for education and research; and military/defense satellites.

Loading next visibility...
Identifier
26997, 2001-055A
Orbit
LEO
Last TLE update
1 day ago
Origin
Manufacturer
Alcatel/Cannes
Mission
Non-operational Civil Science
Bus & Motor
PROTEUS, AOCS
Mass
500 kg wet, 472 kg dry
Launch date (UTC)
2001-12-07 (23 years ago)
Launch vehicle
DELTA 7920-10
Launch site
Air Force Western Test Range (AFWTR)
Object type
Payload
Rocket body
Debris
Shape & HBR
Box + 2 Pan, 6 m
Radar Cross Section
10.176 m², Large (>1 m²)

Expand to show TLE details & history

TLE from 1 day ago
0 JASON
1 26997U 01055A   25126.64535060 -.00000066  00000-0 -18529-4 0  9992
2 26997  66.0397 202.9886 0007681 261.8288 207.3941 12.84070363 96430
Epoch: 2025-05-06T15:29Z
Definitive object data (Epoch: 2025-05-06T15:29:18.291Z)
Latitude
59.77648°
Longitude
-123.45824°
Altitude
1,339.674 km
Speed
7.191 km/s
True Right ascension
22h 14m 26s
True Declination
59° 38' 17"
Sunlit
Object was in daylight at TLE epoch
Visualization TLE readout
Latitude
51.21537°
Longitude
136.88941°
Altitude
1,337.924 km
Speed
7.191 km/s
Apparent Right ascension
15h 27m 16s
Apparent Declination
11° 09' 45"
Sunlit
Object is in daylight
Visualization observer readout
Local Sidereal Time
03:18:49
Azimuth
357.338° N
Elevation
-38.884°
Doppler factor
1
Orbital elements
Apogee altitude
1,329.624 km
Perigee altitude
1,317.793 km
Semi-major axis
7,701.846 km
Eccentricity
0.0007681
Inclination
66.0397°
RAAN
202.9886°
Arg. of periapsis
261.8288°
True anomaly
207.35364°
Mean anomaly
207.3941°
Eccentric anomaly
207.37386°
Mean motion
3.21108 °/min
BSTAR
-0.000018529
Orbital period
112.11 mins
Loading maneuver chart data...
Loading SW <> Apogee altitude chart data...
Loading historical data...
Loading historical data...
Loading historical data...
Loading historical data...
Loading historical data...
Loading historical data...
Loading historical data...

JASON Visibility forecast

Observer location: undefined°, undefined°

Span
Click to sort rows by Start time (UTC) header in descending order
Start Az.
Max El. time (UTC)
Max El. Az.
Max El.
End time (UTC)
End Az.
6 mins2025-05-08 04:26:46.532Z120.606° SE2025-05-08 04:29:46.532Z98.085° ESE12.501°2025-05-08 04:32:46.532Z75.749° E
14 mins2025-05-08 06:17:46.532Z197.475° SSW2025-05-08 06:23:46.532Z126.158° SE43.879°2025-05-08 06:31:46.532Z33.69° NE
12 mins2025-05-08 08:14:46.532Z266.063° W2025-05-08 08:20:46.532Z323.181° NNW25.797°2025-05-08 08:26:46.532Z13.722° NNE
12 mins2025-05-08 14:12:46.532Z350.012° N2025-05-08 14:18:46.532Z52.25° ENE29.418°2025-05-08 14:24:46.532Z106.043° ESE
14 mins2025-05-08 16:07:46.532Z320.875° NNW2025-05-08 16:14:46.532Z233.656° WSW40.748°2025-05-08 16:21:46.532Z170.041° S
|